Dewpoint
42 43 44 46 47 48 48 41 34 44 47 34 34 31 27 25 22 28 27 30 28 23 26 24 26 22 22 32 32 30 30 28 22 25 25 28 26 25 28 29 28 31 29 25
41 42 43 44 46 48 44 36 38 46 44 30 30 27 26 26 23 25 24 26 28 29 26 23 25 27 33 34 30 32 34 33 26 23 28 31 28 27 27 29 29 28 26 22
41 42 43 43 45 49 44 37 32 36 39 34 27 25 23 24 27 28 30 29 29 27 25 26 23 25 32 35 34 40 37 29 27 20 23 31 34 32 31 31 32 27 24 21
41 42 43 44 46 47 41 36 34 35 30 32 27 27 23 20 23 26 27 29 30 27 25 24 25 26 25 29 33 33 31 25 23 22 23 24 28 27 25 27 29 28 25 22
40 42 43 44 45 44 38 33 34 35 34 30 27 28 27 20 20 24 25 26 24 25 25 23 20 25 27 26 30 32 34 25 23 21 20 20 19 21 21 21 22 24 24 25
40 42 43 43 47 45 35 37 40 36 33 32 31 29 26 24 27 28 26 28 29 29 29 30 30 33 33 32 31 30 32 29 26 21 21 25 25 24 22 22 22 24 23 24
40 41 42 42 47 44 40 40 40 35 29 33 28 25 25 24 24 26 26 29 30 30 34 35 34 33 31 31 31 31 30 30 29 24 25 22 20 22 23 22 24 25 26 25
41 41 43 43 45 44 42 42 39 36 32 28 29 29 26 27 30 30 28 30 32 35 33 28 28 27 29 31 28 27 30 29 27 24 19 17 17 22 31 32 25 26 28 28
42 41 43 42 44 45 42 43 44 39 33 30 28 29 29 30 30 32 32 34 35 34 32 28 22 17 20 17 27 30 28 30 28 23 20 16 27 19 27 29 26 24 28 28
42 42 43 43 43 43 42 41 43 38 36 32 34 32 30 29 29 27 30 32 34 35 31 27 22 19 17 18 21 25 28 29 26 25 23 22 26 26 27 25 26 29 32 35
42 43 42 42 43 42 39 40 41 33 35 34 34 33 32 32 31 28 32 34 34 33 29 25 23 24 20 19 29 19 21 23 26 27 25 22 29 27 23 34 32 33 36 36
41 40 41 42 44 42 40 37 41 40 33 33 35 34 35 36 34 31 33 27 31 32 29 28 26 26 27 23 21 23 26 32 28 27 27 31 29 32 33 31 31 34 35 35
35 39 42 42 43 41 39 39 40 39 34 31 32 30 32 37 38 39 33 32 31 36 39 37 33 28 25 24 25 24 27 29 30 27 29 28 32 31 30 30 31 34 33 32
39 37 40 41 41 41 39 37 39 34 31 28 25 32 30 31 35 37 39 35 39 37 39 36 35 32 31 27 28 28 26 28 27 31 30 29 29 32 32 30 31 32 31 31
39 38 39 41 41 41 42 42 41 36 28 29 28 35 36 37 35 35 37 38 36 38 36 33 30 32 35 34 34 29 30 33 30 28 29 30 32 33 32 30 31 31 30 28
39 40 38 40 41 41 41 34 39 40 38 32 26 36 36 37 37 37 36 37 37 38 36 32 32 36 35 33 31 29 30 30 30 34 32 32 33 32 29 29 29 29 28 28
39 41 40 40 41 41 34 33 37 39 40 35 28 30 36 36 36 37 37 38 37 36 34 35 36 34 35 35 26 31 31 31 31 31 30 29 29 28 27 26 25 27 26 25
39 40 40 39 41 39 35 39 42 43 38 36 28 27 32 36 34 33 37 34 35 35 36 35 34 33 34 28 33 30 30 31 30 29 28 28 28 26 24 24 24 23 23 23
41 40 40 41 38 34 33 41 43 43 37 30 30 28 28 34 35 35 36 36 32 35 33 30 30 31 26 28 30 30 30 30 29 28 27 27 26 24 23 23 23 23 22 22
41 40 35 33 38 41 41 37 34 33 34 34 30 32 31 35 36 34 32 31 30 29 29 29 30 27 30 30 30 30 29 29 28 27 26 26 25 24 23 23 23 23 22 22
39 36 33 39 42 38 35 32 30 31 30 33 30 30 31 33 31 29 28 27 28 20 27 25 25 24 29 30 30 30 29 29 28 28 28 27 26 25 24 23 23 23 23 22
38 38 38 37 36 35 29 27 26 26 24 30 28 29 31 31 32 30 28 24 27 16 30 26 21 28 30 30 29 30 30 29 28 28 28 28 27 26 25 24 24 24 25 26
39 32 30 31 28 25 21 20 23 27 31 32 33 33 32 30 31 31 27 27 26 28 29 21 26 29 30 30 30 29 29 29 28 28 28 27 27 27 28 26 28 27 24 22
29 28 25 26 25 25 27 28 31 31 34 34 34 33 33 32 30 29 26 27 28 25 21 20 28 29 30 30 29 28 29 30 30 30 30 29 28 27 29 27 26 25 22 23
27 26 22 24 28 30 30 34 33 32 34 33 32 30 29 28 28 27 25 24 21 22 24 28 30 32 32 32 33 31 29 28 29 29 28 27 27 27 26 26 26 25 22 21
29 28 29 31 31 31 32 33 32 34 34 33 30 27 26 24 24 20 18 15 15 25 30 32 31 32 33 32 32 31 30 30 29 29 28 27 26 26 27 26 26 23 23 21
26 29 31 31 32 31 32 33 34 34 34 32 26 22 20 26 21 19 23 26 28 31 32 33 34 33 33 31 29 26 27 28 29 28 28 28 28 26 25 24 24 24 23 23
Lifted_Index
4 4 4 3 2 2 3 3 3 3 3 4 6 6 6 7 6 6 5 4 4 3 2 2 1 1 1 1 1 1 1 1 1 2 2 2 2 1 1 1 1 1 1 2
4 4 4 4 3 2 2 3 3 2 3 3 5 6 6 6 6 5 4 4 3 3 3 2 2 2 1 1 1 1 1 1 1 1 1 1 1 1 1 0 0 1 1 1
4 4 4 4 3 2 2 2 2 2 2 3 4 5 5 5 5 5 4 4 3 3 3 3 3 2 2 2 1 1 1 1 1 1 1 0 0 0 0 0 0 0 0 0
3 3 3 3 3 2 2 2 2 2 2 2 3 3 4 5 5 4 4 3 3 3 3 3 3 2 2 2 2 1 1 2 2 1 1 0 0 0 0 0 0 0 0 0
2 2 3 3 3 2 2 2 2 1 1 1 2 2 3 3 4 3 3 3 3 3 3 3 2 2 2 2 1 1 1 2 2 2 1 1 1 1 1 1 1 0 0 0
1 1 2 2 2 2 2 2 2 1 1 1 1 1 2 2 2 2 2 2 2 2 2 2 1 1 1 1 1 1 1 1 1 1 1 0 1 1 1 1 0 0 0 0
1 1 2 2 1 2 2 2 1 1 1 0 0 1 1 1 1 1 1 1 1 1 1 1 1 1 1 2 2 1 1 1 0 0 0 0 0 1 1 1 0 0 -0 -0
1 1 1 2 2 2 2 2 2 1 0 0 0 0 1 1 1 1 1 1 1 1 1 1 1 2 2 2 2 2 1 1 0 0 1 1 1 1 1 1 1 0 -0 -0
1 1 1 2 2 2 2 2 2 1 1 0 0 0 0 0 0 0 1 1 1 1 1 1 2 2 2 2 2 2 2 1 1 1 1 1 1 1 1 1 1 1 1 0
1 1 2 2 2 2 2 2 2 1 1 1 0 0 0 0 0 0 1 1 1 1 1 1 2 2 2 2 2 2 2 1 1 1 1 1 1 1 1 1 1 1 1 2
1 2 2 2 1 1 2 2 2 1 1 1 1 1 1 0 0 0 0 0 0 1 1 1 1 1 1 1 2 1 1 1 0 1 1 1 1 1 1 1 1 2 2 3
2 2 1 1 1 1 2 2 2 2 2 2 2 1 1 1 0 -0 0 0 0 0 0 1 1 1 1 1 1 1 1 0 0 0 0 1 1 1 1 1 2 3 3 3
2 2 1 1 1 1 1 2 2 2 2 2 2 2 2 1 0 -0 -0 0 0 -0 0 0 0 0 0 0 0 0 0 0 0 0 1 1 1 1 1 2 3 3 3 3
2 2 1 1 1 1 1 2 2 2 2 2 2 1 1 1 1 -0 -0 -0 -0 -0 0 0 0 0 0 0 0 0 0 0 0 1 1 1 1 1 1 2 3 3 3 3
2 2 1 1 0 1 1 1 1 2 2 1 1 1 1 0 0 0 0 0 0 0 0 1 1 0 0 0 0 0 1 1 1 1 1 1 1 1 2 2 3 3 3 3
1 1 1 1 0 1 1 1 1 1 1 1 1 1 0 -0 -0 0 0 1 1 1 1 1 1 1 1 0 0 1 1 1 2 2 2 2 2 2 2 3 3 4 4 4
1 1 1 1 1 1 1 1 1 1 2 2 1 1 0 0 0 1 1 1 2 2 2 1 1 1 1 1 1 1 2 2 2 2 2 2 2 2 3 3 3 4 5 5
1 1 1 2 1 2 1 1 1 2 2 2 2 1 1 1 1 1 1 2 2 2 2 2 1 1 1 1 1 2 2 2 2 2 2 2 2 2 3 3 4 4 5 5
2 2 2 2 2 2 2 2 2 2 2 2 2 1 1 1 1 1 1 1 1 2 2 1 1 1 1 1 2 2 2 2 2 2 2 2 2 3 3 4 4 4 5 5
2 2 3 3 3 2 2 3 3 2 2 2 2 2 1 1 1 1 1 1 1 1 1 1 1 1 2 2 2 3 3 2 2 3 3 3 3 3 4 4 5 5 6 6
2 2 2 2 2 2 2 2 2 2 1 2 2 2 2 1 1 1 2 1 1 1 2 2 2 2 2 3 3 3 3 4 4 4 5 5 5 4 4 5 5 6 6 6
2 2 2 2 2 2 2 1 1 1 1 1 2 2 2 2 2 2 2 2 2 2 2 2 2 3 3 3 3 3 4 5 5 6 6 6 6 5 5 6 6 7 7 7
2 1 1 1 1 1 1 1 1 1 1 1 1 2 2 2 2 2 2 2 2 2 2 2 2 3 3 3 3 4 5 5 6 6 6 6 6 6 6 6 7 7 8 8
1 1 1 1 1 1 1 1 1 1 1 1 2 2 2 3 3 3 3 3 2 2 2 2 3 3 3 3 3 4 5 6 6 6 6 6 6 6 6 7 7 8 8 8
1 1 1 1 1 2 2 2 1 2 2 2 2 3 3 3 3 3 3 3 2 2 3 3 3 3 3 4 4 5 6 6 6 6 6 5 5 6 6 7 7 8 8 8
2 2 2 2 2 2 2 2 2 2 2 2 2 3 3 3 3 3 3 3 3 3 4 4 4 4 4 4 5 6 6 6 6 6 5 5 6 6 6 6 7 7 7 7
2 2 2 2 2 2 2 2 2 2 2 2 2 3 3 3 3 3 3 3 4 4 4 4 4 4 4 5 5 6 6 6 6 6 5 5 6 6 6 6 6 6 7 7